Weather History for Greenwood, MS

Change the Weather History Date:

Saturday, November 3, 2012

  Actual Average Record
Temperature  
Mean Temperature 68 °F 59 °F  
Max Temperature 83 °F 71 °F 85 °F (1987)
Min Temperature 53 °F 46 °F 22 °F (1951)
Degree Days  
Heating Degree Days 0 8  
Month to date heating degree days 10 22  
Since 1 July heating degree days 180 153  
Cooling Degree Days 3 1  
Month to date cooling degree days 3 3  
Year to date cooling degree days 2237 2145  
Growing Degree Days 18 (Base 50)    
Moisture  
Dew Point 58 °F    
Average Humidity 71    
Maximum Humidity 100    
Minimum Humidity 42    
Precipitation  
Precipitation 0.04 in 0.13 in 1.39 in (1961)
Month to date precipitation 0.04 0.38  
Year to date precipitation 35.42 41.98  
Sea Level Pressure  
Sea Level Pressure 30.03 in    
Wind  
Wind Speed 5 mph (SW)    
Max Wind Speed 15 mph    
Max Gust Speed 18 mph    
Visibility 9 miles    
Events Rain    
T = Trace of Precipitation, MM = Missing Value Source: NWS Daily Summary

Daily Weather History Graph

Daily Weather History Graph

Search for Another Location

Airport:

Trip Planner

Search our weather history database for the weather conditions in past years. The results will help you decide how hot, cold, wet, or windy it might be!

Date:

Astronomy

Nov. 03, 2012 Rise Set
Actual Time 7:21 AM CDT 6:06 PM CDT
Civil Twilight 6:55 AM CDT 6:31 PM CDT
Nautical Twilight 6:26 AM CDT 7:01 PM CDT
Astronomical Twilight 5:56 AM CDT 7:30 PM CDT
Moon 9:51 PM CDT (11/3) 11:20 AM CDT (11/3)
Length of Visible Light 11h 36m
Length of Day
10h 44m
Waning Gibbous, 80% of the Moon is Illuminated
Nov 3
Waning Gibbous
Nov 6
Last Quarter
Nov 13
New
Nov 20
First Quarter
Nov 28
Full

Hourly Weather History & Observations

Time (CDT) Temp. Heat Index Dew Point Humidity Pressure Visibility Wind Dir Wind Speed Gust Speed Precip Events Conditions
12:53 AM 55.0 °F - 54.0 °F 96% 30.01 in 6.0 mi Calm Calm - N/A   Clear
1:04 AM 53.6 °F - 53.6 °F 100% 30.01 in 1.5 mi Calm Calm - N/A   Clear
1:15 AM 55.4 °F - 53.6 °F 94% 30.01 in 3.0 mi South 3.5 mph - N/A   Clear
1:53 AM 59.0 °F - 57.0 °F 93% 30.01 in 10.0 mi South 3.5 mph - N/A   Clear
2:53 AM 55.0 °F - 54.0 °F 96% 30.01 in 10.0 mi Calm Calm - N/A   Clear
3:53 AM 54.0 °F - 53.1 °F 97% 30.01 in 6.0 mi Calm Calm - N/A   Clear
4:53 AM 55.9 °F - 55.0 °F 97% 30.02 in 10.0 mi South 3.5 mph - N/A   Clear
5:53 AM 57.9 °F - 57.0 °F 97% 30.04 in 10.0 mi SSW 5.8 mph - N/A   Clear
6:53 AM 57.9 °F - 57.0 °F 97% 30.06 in 8.0 mi SSW 3.5 mph - N/A   Clear
7:53 AM 57.0 °F - 55.9 °F 96% 30.08 in 7.0 mi SSW 3.5 mph - N/A   Clear
8:53 AM 64.0 °F - 62.1 °F 93% 30.09 in 10.0 mi SSW 6.9 mph - N/A   Clear
9:53 AM 69.1 °F - 63.0 °F 81% 30.10 in 10.0 mi SW 6.9 mph - N/A   Clear
10:53 AM 73.0 °F - 64.0 °F 73% 30.10 in 10.0 mi WSW 6.9 mph - N/A   Partly Cloudy
11:53 AM 77.0 °F - 64.9 °F 66% 30.09 in 10.0 mi West 8.1 mph 16.1 mph N/A   Clear
12:53 PM 79.0 °F - 64.0 °F 60% 30.06 in 10.0 mi West 8.1 mph - N/A   Partly Cloudy
1:53 PM 81.0 °F 82.2 °F 63.0 °F 54% 30.03 in 10.0 mi West 9.2 mph - N/A   Partly Cloudy
2:53 PM 80.1 °F 80.7 °F 59.0 °F 48% 30.01 in 10.0 mi WSW 8.1 mph - N/A   Clear
3:53 PM 82.0 °F 81.7 °F 57.0 °F 42% 29.99 in 10.0 mi WSW 9.2 mph - N/A   Clear
4:53 PM 81.0 °F 80.8 °F 55.9 °F 42% 29.99 in 10.0 mi SW 13.8 mph - N/A   Clear
5:53 PM 77.0 °F - 57.0 °F 50% 29.97 in 10.0 mi SW 6.9 mph - N/A   Clear
6:53 PM 66.9 °F - 57.9 °F 73% 29.98 in 10.0 mi South 3.5 mph - N/A   Clear
7:53 PM 63.0 °F - 57.9 °F 84% 30.00 in 10.0 mi Calm Calm - N/A   Clear
8:53 PM 60.1 °F - 57.0 °F 90% 30.02 in 10.0 mi Calm Calm - N/A   Clear
9:53 PM 59.0 °F - 57.0 °F 93% 30.04 in 10.0 mi Calm Calm - N/A   Clear
10:53 PM 66.9 °F - 57.9 °F 73% 30.08 in 10.0 mi North 11.5 mph - N/A   Mostly Cloudy
11:53 PM 64.9 °F - 57.0 °F 75% 30.08 in 10.0 mi North 5.8 mph - 0.00 in Rain Light Rain